User: anonymous   Login
Location: Berg
(47.2344°N, 9.5296°E)
Time: 05:06:35
(UTC+00:00)
Language:

Cosmos 1428 Rocket - Orbit

View from above orbital plane
View from above orbital plane
View from above satellite
View from above satellite

Ground track
Ground track

The orbit data is extracted from the following two-line orbital elements,

1 13758U 83001B   21112.70848227  .00000094  00000-0  77293-4 0  9996
2 13758  82.9112 335.7256 0027381   1.2542 358.8680 13.78807788925332
Epoch (UTC): 22 April 2021 17:00:12
Eccentricity: 0.0027381
inclination: 82.9112°
perigee height: 948 km
apogee height: 988 km
right ascension of ascending node: 335.7256°
argument of perigee: 1.2542°
revolutions per day: 13.78807788
mean anomaly at epoch: 358.8680°
orbit number at epoch: 92533

The dashed part of the orbit path shows where the satellite is in the earth's shadow,  

DLR